EW3804 Weather Reports


time (UTC)temp
F
wind
direction
speed
knots
gust
knots
rain 1hr
in
rain 24hr
in
rain mn
in
humidity
%
barometer
mb
20260504201529 80 197 0.0 0.0 0.00 0.00 0.00 65 1003.0
20260504200028 79 183 0.0 0.0 0.00 0.00 0.00 65 1003.3
20260504194525 79 168 0.0 0.0 0.00 0.00 0.00 63 1003.5
20260504193026 79 183 0.0 0.0 0.00 0.00 0.00 63 1003.8
20260504191524 79 166 0.0 0.0 0.00 0.00 0.00 63 1003.9
20260504190022 79 124 0.0 0.0 0.00 0.00 0.00 62 1004.0
20260504184518 78 162 0.0 0.0 0.00 0.00 0.00 62 1004.3
20260504183016 78 142 0.0 0.0 0.00 0.00 0.00 64 1004.4
20260504181515 78 226 0.0 0.0 0.00 0.00 0.00 62 1004.6
20260504180012 77 154 0.0 0.0 0.00 0.00 0.00 64 1005.0
20260504174508 77 158 0.0 0.0 0.00 0.00 0.00 66 1005.2
20260504173005 77 172 0.0 0.0 0.00 0.00 0.00 66 1005.5
20260504171504 76 158 0.0 0.0 0.00 0.00 0.00 66 1005.6
20260504081531 61 137 0.0 0.0 0.00 0.00 0.00 80 1007.2
20260504050004 65 157 0.0 0.0 0.00 0.00 0.00 65 1009.1
20260504044606 65 144 0.0 0.0 0.00 0.00 0.00 65 1009.2
20260504043058 65 164 0.0 0.0 0.00 0.00 0.00 65 1009.3
20260504041552 65 137 0.0 0.0 0.00 0.00 0.00 66 1009.3
20260504040103 65 142 0.0 0.0 0.00 0.00 0.00 65 1009.4
20260504034605 65 162 0.0 0.0 0.00 0.00 0.00 64 1009.5
20260504033037 66 158 0.0 0.0 0.00 0.00 0.00 64 1009.5
20260504031535 66 136 0.0 0.0 0.00 0.00 0.00 63 1009.3
20260504030028 66 133 0.0 0.0 0.00 0.00 0.00 63 1009.2
20260504024523 66 139 0.0 0.0 0.00 0.00 0.00 64 1009.3
20260504023019 66 134 0.0 0.0 0.00 0.00 0.00 63 1009.4
20260504021514 67 163 0.0 0.9 0.00 0.00 0.00 62 1009.2
20260504020015 68 139 0.0 0.0 0.00 0.00 0.00 61 1009.0
20260504014506 68 131 0.0 0.0 0.00 0.00 0.00 59 1009.0
20260504013002 69 129 0.0 0.0 0.00 0.00 0.00 58 1008.9
20260504011556 70 137 0.0 0.9 0.00 0.00 0.00 57 1008.9
20260504010053 71 138 0.0 0.9 0.00 0.00 0.00 54 1008.9
20260504004548 72 145 0.0 0.9 0.00 0.00 0.00 53 1008.9
20260504003043 73 146 0.0 0.9 0.00 0.00 0.00 51 1009.1
20260504001547 75 156 0.0 0.0 0.00 0.00 0.00 47 1009.0
20260504000035 75 141 0.0 0.0 0.00 0.00 0.00 44 1009.2
20260503234531 76 150 0.0 0.0 0.00 0.00 0.00 43 1009.3
20260503233024 77 151 0.0 0.0 0.00 0.00 0.00 40 1009.5
20260503231522 78 143 0.0 0.0 0.00 0.00 0.00 38 1009.4
20260503230016 79 165 0.0 0.0 0.00 0.00 0.00 40 1009.6
20260503224511 79 149 0.0 0.0 0.00 0.00 0.00 40 1009.8
20260503223006 79 191 0.0 0.0 0.00 0.00 0.00 41 1009.8
20260503221501 79 101 0.0 0.0 0.00 0.00 0.00 38 1010.0
20260503220058 79 152 0.0 0.0 0.00 0.00 0.00 38 1010.2
20260503214601 79 160 0.0 0.0 0.00 0.00 0.00 38 1010.4
20260503213049 79 159 0.0 0.0 0.00 0.00 0.00 35 1010.7
20260503211549 79 164 0.0 0.0 0.00 0.00 0.00 38 1010.9
20260503210039 80 108 0.0 0.0 0.00 0.00 0.00 36 1011.1
20260503204536 80 169 0.0 0.0 0.00 0.00 0.00 36 1011.3
20260503203029 80 157 0.0 0.0 0.00 0.00 0.00 36 1011.6